Regional Weather Roundup
Issued by NWS

Home | Current Version | Previous Version | Graphics & Text | Print | Product List | Glossary Off
Versions: 1 2 3 4 5 6 7 8 9 10 11 12 13 14 15 16 17 18 19 20 21 22 23 24 25 26 27 28 29 30 31 32 33 34 35 36 37 38 39 40 41 42 43 44 45 46 47 48 49 50

000
ASUS43 KTOP 190608
RWRKS

WEATHER ROUNDUP FOR KANSAS
NATIONAL WEATHER SERVICE GOODLAND KS
1200 AM CST SUN NOV 19 2017

NOTE:  "FAIR" INDICATES FEW OR NO CLOUDS BELOW 12,000 FEET WITH NO
SIGNIFICANT WEATHER AND/OR OBSTRUCTIONS TO VISIBILITY.

KSZ001>006-013>018-027>032-041>047-190700-
NORTHWEST KANSAS

CITY           SKY/WX    TMP DP  RH WIND       PRES   REMARKS
GOODLAND       CLEAR     25  14  63 W8        30.27S
6HR MIN TEMP:  23; 6HR MAX TEMP:  34;

HAYS           CLEAR     25  20  81 W8        30.28F
HILL CITY      CLEAR     28  21  75 W8        30.27F
6HR MIN TEMP:  28; 6HR MAX TEMP:  42;

RUSSELL        CLEAR     25  22  88 SW8       30.25F
6HR MIN TEMP:  25; 6HR MAX TEMP:  41;

$$

KSZ061>065-074>080-084>089-190700-
SOUTHWEST KANSAS

CITY           SKY/WX    TMP DP  RH WIND       PRES   REMARKS
DODGE CITY     CLEAR     28  16  60 W5        30.31S
6HR MIN TEMP:  27; 6HR MAX TEMP:  40;

ELKHART        CLOUDY    31  20  63 SW12      30.30F WCI  21
GARDEN CITY    CLEAR     26  16  65 W8        30.30S
6HR MIN TEMP:  22; 6HR MAX TEMP:  40;

GREAT BEND     CLEAR     26  22  84 W5        30.28F
LIBERAL        CLEAR     26  15  63 NW3       30.32F
PRATT          CLEAR     29  21  72 W9        30.30S
6HR MIN TEMP:  28; 6HR MAX TEMP:  42;

$$

KSZ066>073-081>083-090>101-190700-
SOUTHEAST KANSAS

CITY           SKY/WX    TMP DP  RH WIND       PRES   REMARKS
CHANUTE        CLEAR     39  28  64 NW8       30.25R
6HR MIN TEMP:  38; 6HR MAX TEMP:  48;

COFFEYVILLE    CLEAR     39  29  67 NW5       30.26R
6HR MIN TEMP:  38; 6HR MAX TEMP:  48;

HUTCHINSON     CLEAR     32  24  72 NW6       30.27S
6HR MIN TEMP:  29; 6HR MAX TEMP:  46;

MEDICINE LODGE   N/A     31  23  72 NW5       30.30S
NEWTON         CLEAR     34  23  64 W5        30.27S
PARSONS        CLEAR     35  29  78 NW6       30.26R
6HR MIN TEMP:  32; 6HR MAX TEMP:  45;

WICHITA INTL   CLEAR     37  25  61 NW5       30.28R
6HR MIN TEMP:  35; 6HR MAX TEMP:  48;

WICHITA JABRA  CLEAR     36  25  64 W7        30.27R
6HR MIN TEMP:  36; 6HR MAX TEMP:  45;

WICHITA MCCONL CLEAR     39  24  54 NW5       30.27S
WINFIELD       CLEAR     33  25  72 CALM      30.29S
6HR MIN TEMP:  32; 6HR MAX TEMP:  47;

$$

KSZ007>012-019>026-033>040-048>060-102>105-190700-
NORTHEAST KANSAS

CITY           SKY/WX    TMP DP  RH WIND       PRES   REMARKS
CONCORDIA      CLEAR     33  24  69 W8        30.24S
6HR MIN TEMP:  32; 6HR MAX TEMP:  45;

EMPORIA        CLEAR     33  25  72 W5        30.25R
6HR MIN TEMP:  33; 6HR MAX TEMP:  47;

LAWRENCE       CLEAR     30  25  81 W3        30.23R
6HR MIN TEMP:  30; 6HR MAX TEMP:  48;

MANHATTAN      CLEAR     33  25  72 CALM      30.25S
6HR MIN TEMP:  31; 6HR MAX TEMP:  48;

MARYSVILLE     CLEAR     32  27  80 NW6       30.24R
OLATHE IND     CLEAR     34  27  75 W6        30.22R
6HR MIN TEMP:  34; 6HR MAX TEMP:  46;

OLATHE EXE     CLEAR     35  26  69 NW7       30.21R
6HR MIN TEMP:  35; 6HR MAX TEMP:  46;

SALINA         CLEAR     34  24  67 SE3       30.27S
6HR MIN TEMP:  32; 6HR MAX TEMP:  47;

TOPEKA BILLARD PTCLDY    35  28  75 W5        30.23S
6HR MIN TEMP:  35; 6HR MAX TEMP:  48;

TOPEKA FORBES  CLEAR     34  27  75 W6        30.23R
6HR MIN TEMP:  33; 6HR MAX TEMP:  48;

$$




USA.gov is the U.S. government's official web portal to all federal, state and local government web resources and services.